Find Starlink 31207

NORAD ID: 59035 Int'l Des: 2024-038 Owner: SPXS Country: US Constellation: starlink operational
LEOCIRCULAR

現在のビュー

3D地球を読み込み中...

About Starlink 31207

Starlink 31207 (NORAD 59035) is a starlink constellation satellite (v2 mini) launched Feb 25, 2024 by SPXS of US. It operates in LEO, CIRCULAR orbit with a mass of 730.00 kg.

次回通過

Passes for default location (London). Set your location on the main map for personalized predictions.

高度履歴

Loading altitude history...

軌道要素

1 59035U 24038N 26264.75190653 -.00000514 00000-0 -91636-5 0 9997
2 59035 43.0011 356.2902 0000267 328.2648 31.8188 15.27578114144849
Epoch: Sep 21, 2026 • Age: 22 hours

現在のステータス

高度 486.2 km
遠地点 / 近地点 N/A
速度 7.63 km/s
衛星直下点 42.77°N, 157.68°W
打ち上げ日 Feb 25, 2024
運用期間 2.5 years
タイプ internet

技術仕様

分類 Payload
質量 730.00 kg
乾燥質量 700.00 kg
長さ 0.30 m
スパン 29.00 m
形状 ? Box + pan
製造者 SPXS
バスタイプ Starlink V2M
フェーズステータス In Orbit
所有者/国 SPXS/US

Most Searched